| time (UTC) | temp F | wind direction | speed MPH | gust MPH | rain 1hr in | rain 24hr in | rain mn in | humidity % | barometer mb |
| 20260906194012 | 84 | 103 | 3.0 | 9.0 | 0.00 | 0.02 | 0.02 | 66 | 1015.7 |
| 20260906193514 | 84 | 113 | 6.0 | 10.0 | 0.00 | 0.02 | 0.02 | 63 | 1015.7 |
| 20260906193030 | 85 | 103 | 5.0 | 11.0 | 0.00 | 0.02 | 0.02 | 64 | 1015.7 |
| 20260906192512 | 84 | 111 | 5.0 | 11.0 | 0.00 | 0.02 | 0.02 | 62 | 1015.7 |
| 20260906192014 | 84 | 106 | 5.0 | 10.0 | 0.00 | 0.02 | 0.02 | 63 | 1015.7 |
| 20260906191530 | 84 | 90 | 5.0 | 10.0 | 0.00 | 0.02 | 0.02 | 67 | 1015.8 |
| 20260906191015 | 84 | 107 | 4.0 | 11.0 | 0.00 | 0.02 | 0.02 | 65 | 1015.8 |
| 20260906190516 | 84 | 107 | 6.0 | 11.0 | 0.00 | 0.02 | 0.02 | 65 | 1015.8 |
| 20260906190028 | 84 | 111 | 3.0 | 10.0 | 0.00 | 0.02 | 0.02 | 66 | 1015.8 |
| 20260906185503 | 84 | 63 | 5.0 | 13.0 | 0.00 | 0.02 | 0.02 | 66 | 1016.0 |
| 20260906185006 | 83 | 78 | 6.0 | 13.0 | 0.00 | 0.02 | 0.02 | 66 | 1016.0 |
| 20260906184513 | 83 | 67 | 6.0 | 10.0 | 0.00 | 0.02 | 0.02 | 66 | 1016.1 |
| 20260906184008 | 83 | 74 | 4.0 | 10.0 | 0.00 | 0.02 | 0.02 | 64 | 1016.2 |
| 20260906183511 | 83 | 102 | 7.0 | 10.0 | 0.00 | 0.02 | 0.02 | 64 | 1016.2 |
| 20260906183031 | 83 | 66 | 5.0 | 10.0 | 0.00 | 0.02 | 0.02 | 65 | 1016.3 |
| 20260906182515 | 83 | 93 | 5.0 | 9.0 | 0.00 | 0.02 | 0.02 | 66 | 1016.3 |
| 20260906182012 | 83 | 92 | 5.0 | 12.0 | 0.00 | 0.02 | 0.02 | 66 | 1016.2 |
| 20260906181536 | 82 | 82 | 5.0 | 13.0 | 0.00 | 0.02 | 0.02 | 66 | 1016.2 |
| 20260906181014 | 82 | 88 | 7.0 | 13.0 | 0.00 | 0.02 | 0.02 | 67 | 1016.2 |
| 20260906180516 | 82 | 98 | 5.0 | 12.0 | 0.00 | 0.02 | 0.02 | 66 | 1016.3 |
| 20260906180004 | 82 | 103 | 9.0 | 12.0 | 0.00 | 0.02 | 0.02 | 67 | 1016.2 |
| 20260906175505 | 81 | 66 | 7.0 | 11.0 | 0.00 | 0.02 | 0.02 | 69 | 1016.2 |
| 20260906175003 | 81 | 88 | 6.0 | 11.0 | 0.00 | 0.02 | 0.02 | 69 | 1016.2 |
| 20260906174510 | 81 | 119 | 7.0 | 11.0 | 0.00 | 0.02 | 0.02 | 68 | 1016.2 |
| 20260906174007 | 80 | 101 | 6.0 | 11.0 | 0.00 | 0.02 | 0.02 | 69 | 1016.2 |
| 20260906173511 | 80 | 96 | 5.0 | 11.0 | 0.00 | 0.02 | 0.02 | 72 | 1016.3 |
| 20260906173021 | 79 | 85 | 3.0 | 8.0 | 0.00 | 0.02 | 0.02 | 72 | 1016.3 |
| 20260906172509 | 79 | 88 | 2.0 | 7.0 | 0.00 | 0.02 | 0.02 | 75 | 1016.4 |
| 20260906172010 | 78 | 78 | 2.0 | 7.0 | 0.00 | 0.02 | 0.02 | 75 | 1016.3 |
| 20260906171524 | 77 | 90 | 2.0 | 7.0 | 0.00 | 0.02 | 0.02 | 76 | 1016.2 |
| 20260906171011 | 77 | 77 | 1.0 | 7.0 | 0.00 | 0.02 | 0.02 | 77 | 1016.1 |
| 20260906170518 | 76 | 82 | 1.0 | 10.0 | 0.00 | 0.02 | 0.02 | 79 | 1016.0 |
| 20260906170027 | 76 | 74 | 4.0 | 10.0 | 0.00 | 0.02 | 0.02 | 79 | 1015.8 |
| 20260906165516 | 75 | 85 | 3.0 | 10.0 | 0.00 | 0.02 | 0.02 | 80 | 1015.9 |
| 20260906165003 | 75 | 92 | 2.0 | 10.0 | 0.00 | 0.02 | 0.02 | 81 | 1015.8 |
| 20260906164523 | 75 | 80 | 5.0 | 10.0 | 0.00 | 0.02 | 0.02 | 81 | 1015.7 |
| 20260906164003 | 74 | 107 | 4.0 | 12.0 | 0.00 | 0.02 | 0.02 | 82 | 1015.8 |
| 20260906163510 | 74 | 109 | 5.0 | 12.0 | 0.00 | 0.02 | 0.02 | 82 | 1015.6 |
| 20260906163021 | 74 | 126 | 7.0 | 11.0 | 0.00 | 0.02 | 0.02 | 83 | 1015.7 |
| 20260906162509 | 73 | 125 | 4.0 | 13.0 | 0.01 | 0.02 | 0.02 | 84 | 1015.7 |
| 20260906162008 | 73 | 122 | 7.0 | 13.0 | 0.01 | 0.02 | 0.02 | 84 | 1015.8 |
| 20260906161521 | 73 | 124 | 6.0 | 9.0 | 0.01 | 0.02 | 0.02 | 84 | 1016.0 |
| 20260906161011 | 73 | 141 | 3.0 | 10.0 | 0.01 | 0.02 | 0.02 | 85 | 1016.3 |
| 20260906160512 | 72 | 141 | 3.0 | 12.0 | 0.01 | 0.02 | 0.02 | 85 | 1016.2 |
| 20260906160038 | 72 | 149 | 6.0 | 12.0 | 0.01 | 0.02 | 0.02 | 86 | 1016.0 |
| 20260906155517 | 71 | 133 | 5.0 | 10.0 | 0.01 | 0.02 | 0.02 | 87 | 1015.8 |
| 20260906155015 | 71 | 115 | 6.0 | 10.0 | 0.02 | 0.02 | 0.02 | 87 | 1015.9 |
| 20260906154534 | 71 | 110 | 5.0 | 10.0 | 0.02 | 0.02 | 0.02 | 87 | 1015.7 |
| 20260906154016 | 71 | 44 | 6.0 | 10.0 | 0.02 | 0.02 | 0.02 | 87 | 1015.6 |
| 20260906153506 | 71 | 101 | 7.0 | 10.0 | 0.02 | 0.02 | 0.02 | 86 | 1015.8 |
| 20260906153013 | 71 | 102 | 4.0 | 11.0 | 0.02 | 0.02 | 0.02 | 86 | 1015.6 |
| 20260906152503 | 71 | 106 | 7.0 | 11.0 | 0.01 | 0.01 | 0.01 | 86 | 1015.6 |
| 20260906152011 | 71 | 95 | 2.0 | 4.0 | 0.01 | 0.01 | 0.01 | 86 | 1016.2 |
| 20260906151516 | 71 | 114 | 1.0 | 3.0 | 0.01 | 0.01 | 0.01 | 85 | 1016.2 |
| 20260906151008 | 71 | 105 | 0.0 | 5.0 | 0.01 | 0.01 | 0.01 | 85 | 1016.4 |
| 20260906150513 | 71 | 112 | 1.0 | 12.0 | 0.01 | 0.01 | 0.01 | 85 | 1016.0 |
| 20260906150043 | 71 | 131 | 4.0 | 12.0 | 0.01 | 0.01 | 0.01 | 84 | 1015.9 |
| 20260906145512 | 71 | 101 | 4.0 | 12.0 | 0.01 | 0.01 | 0.01 | 84 | 1015.8 |
| 20260906145014 | 71 | 167 | 3.0 | 9.0 | 0.00 | 0.00 | 0.00 | 83 | 1016.1 |
| 20260906144536 | 72 | 171 | 2.0 | 9.0 | 0.00 | 0.00 | 0.00 | 82 | 1016.6 |
| 20260906144018 | 72 | 173 | 3.0 | 9.0 | 0.00 | 0.00 | 0.00 | 82 | 1016.9 |
| 20260906143516 | 72 | 175 | 3.0 | 8.0 | 0.00 | 0.00 | 0.00 | 81 | 1016.9 |
| 20260906143037 | 72 | 221 | 2.0 | 13.0 | 0.00 | 0.00 | 0.00 | 81 | 1016.9 |
| 20260906142504 | 72 | 213 | 6.0 | 13.0 | 0.00 | 0.00 | 0.00 | 81 | 1016.9 |
| 20260906142004 | 72 | 222 | 4.0 | 12.0 | 0.00 | 0.00 | 0.00 | 82 | 1017.1 |
| 20260906141518 | 72 | 162 | 2.0 | 7.0 | 0.00 | 0.00 | 0.00 | 83 | 1017.2 |
| 20260906141008 | 72 | 225 | 2.0 | 7.0 | 0.00 | 0.00 | 0.00 | 83 | 1017.3 |
| 20260906140514 | 72 | 229 | 1.0 | 4.0 | 0.00 | 0.00 | 0.00 | 84 | 1017.4 |
| 20260906140023 | 72 | 227 | 1.0 | 4.0 | 0.00 | 0.00 | 0.00 | 84 | 1017.4 |
| 20260906135512 | 72 | 226 | 0.0 | 6.0 | 0.00 | 0.00 | 0.00 | 84 | 1017.4 |
| 20260906135012 | 72 | 281 | 1.0 | 6.0 | 0.00 | 0.00 | 0.00 | 84 | 1017.4 |
| 20260906134527 | 72 | 270 | 1.0 | 5.0 | 0.00 | 0.00 | 0.00 | 84 | 1017.3 |
| 20260906134015 | 72 | 308 | 2.0 | 7.0 | 0.00 | 0.00 | 0.00 | 84 | 1017.2 |
| 20260906133517 | 72 | 308 | 2.0 | 8.0 | 0.00 | 0.00 | 0.00 | 84 | 1017.2 |
| 20260906133031 | 72 | 275 | 3.0 | 9.0 | 0.00 | 0.00 | 0.00 | 84 | 1017.2 |
| 20260906132516 | 72 | 254 | 3.0 | 9.0 | 0.00 | 0.00 | 0.00 | 84 | 1017.3 |
| 20260906132015 | 72 | 263 | 4.0 | 9.0 | 0.00 | 0.00 | 0.00 | 83 | 1017.2 |
| 20260906131524 | 72 | 267 | 2.0 | 8.0 | 0.00 | 0.00 | 0.00 | 83 | 1017.2 |
| 20260906131007 | 72 | 276 | 3.0 | 7.0 | 0.00 | 0.00 | 0.00 | 83 | 1017.2 |
| 20260906130507 | 72 | 277 | 3.0 | 7.0 | 0.00 | 0.00 | 0.00 | 82 | 1017.2 |
| 20260906130033 | 72 | 284 | 2.0 | 7.0 | 0.00 | 0.00 | 0.00 | 82 | 1017.4 |
| 20260906125514 | 72 | 286 | 2.0 | 9.0 | 0.00 | 0.00 | 0.00 | 81 | 1017.4 |
| 20260906125010 | 72 | 281 | 4.0 | 9.0 | 0.00 | 0.00 | 0.00 | 81 | 1017.4 |
| 20260906124527 | 72 | 272 | 5.0 | 9.0 | 0.00 | 0.00 | 0.00 | 80 | 1017.4 |
| 20260906124013 | 73 | 271 | 2.0 | 10.0 | 0.00 | 0.00 | 0.00 | 80 | 1017.3 |
| 20260906123515 | 73 | 270 | 4.0 | 11.0 | 0.00 | 0.00 | 0.00 | 79 | 1017.3 |
| 20260906123029 | 73 | 291 | 5.0 | 13.0 | 0.00 | 0.00 | 0.00 | 79 | 1017.4 |
| 20260906122516 | 73 | 278 | 8.0 | 14.0 | 0.00 | 0.00 | 0.00 | 78 | 1017.5 |
| 20260906122016 | 74 | 283 | 8.0 | 14.0 | 0.00 | 0.00 | 0.00 | 78 | 1017.4 |
| 20260906121534 | 74 | 285 | 6.0 | 14.0 | 0.00 | 0.00 | 0.00 | 78 | 1017.5 |
| 20260906121018 | 74 | 274 | 8.0 | 17.0 | 0.00 | 0.00 | 0.00 | 78 | 1017.5 |
| 20260906120518 | 75 | 279 | 9.0 | 17.0 | 0.00 | 0.00 | 0.00 | 78 | 1017.5 |
| 20260906120019 | 75 | 269 | 6.0 | 14.0 | 0.00 | 0.00 | 0.00 | 78 | 1017.5 |
| 20260906115510 | 75 | 273 | 7.0 | 14.0 | 0.00 | 0.00 | 0.00 | 79 | 1017.3 |
| 20260906115010 | 75 | 255 | 7.0 | 12.0 | 0.00 | 0.00 | 0.00 | 79 | 1017.3 |
| 20260906114532 | 76 | 283 | 6.0 | 12.0 | 0.00 | 0.00 | 0.00 | 79 | 1017.0 |
| 20260906114013 | 76 | 262 | 5.0 | 11.0 | 0.00 | 0.00 | 0.00 | 78 | 1016.8 |
| 20260906113512 | 76 | 279 | 5.0 | 11.0 | 0.00 | 0.00 | 0.00 | 78 | 1016.6 |
| 20260906113026 | 76 | 290 | 5.0 | 11.0 | 0.00 | 0.00 | 0.00 | 78 | 1016.5 |
| 20260906112514 | 76 | 271 | 4.0 | 9.0 | 0.00 | 0.00 | 0.00 | 79 | 1016.4 |
| 20260906112017 | 76 | 263 | 3.0 | 8.0 | 0.00 | 0.00 | 0.00 | 79 | 1016.3 |
| 20260906111533 | 76 | 266 | 2.0 | 8.0 | 0.00 | 0.00 | 0.00 | 79 | 1016.3 |
| 20260906111016 | 75 | 273 | 3.0 | 8.0 | 0.00 | 0.00 | 0.00 | 80 | 1016.3 |
| 20260906110518 | 75 | 253 | 2.0 | 11.0 | 0.00 | 0.00 | 0.00 | 82 | 1016.2 |
| 20260906110040 | 74 | 234 | 4.0 | 11.0 | 0.00 | 0.00 | 0.00 | 84 | 1016.0 |
| 20260906105516 | 73 | 244 | 2.0 | 16.0 | 0.00 | 0.00 | 0.00 | 86 | 1016.0 |
| 20260906105009 | 72 | 277 | 5.0 | 16.0 | 0.00 | 0.00 | 0.00 | 87 | 1016.2 |
| 20260906104523 | 72 | 136 | 1.0 | 3.0 | 0.00 | 0.00 | 0.00 | 87 | 1015.1 |
| 20260906104011 | 72 | 136 | 1.0 | 4.0 | 0.00 | 0.00 | 0.00 | 87 | 1015.0 |
| 20260906103510 | 72 | 134 | 2.0 | 4.0 | 0.00 | 0.00 | 0.00 | 87 | 1014.8 |
| 20260906103027 | 72 | 134 | 1.0 | 4.0 | 0.00 | 0.00 | 0.00 | 87 | 1014.8 |
| 20260906102513 | 72 | 134 | 2.0 | 4.0 | 0.00 | 0.00 | 0.00 | 87 | 1014.7 |
| 20260906102016 | 72 | 134 | 1.0 | 4.0 | 0.00 | 0.00 | 0.00 | 87 | 1014.6 |
| 20260906101531 | 72 | 134 | 1.0 | 4.0 | 0.00 | 0.00 | 0.00 | 87 | 1014.7 |
| 20260906101016 | 72 | 134 | 1.0 | 4.0 | 0.00 | 0.00 | 0.00 | 87 | 1014.7 |
| 20260906100518 | 72 | 134 | 2.0 | 4.0 | 0.00 | 0.00 | 0.00 | 87 | 1014.8 |
| 20260906100031 | 72 | 134 | 2.0 | 4.0 | 0.00 | 0.00 | 0.00 | 87 | 1014.9 |
| 20260906095506 | 72 | 136 | 2.0 | 4.0 | 0.00 | 0.00 | 0.00 | 86 | 1014.9 |
| 20260906095008 | 72 | 137 | 1.0 | 4.0 | 0.00 | 0.00 | 0.00 | 86 | 1014.9 |
| 20260906094527 | 72 | 136 | 1.0 | 4.0 | 0.00 | 0.00 | 0.00 | 86 | 1014.9 |
| 20260906094007 | 72 | 133 | 1.0 | 5.0 | 0.00 | 0.00 | 0.00 | 86 | 1014.7 |
| 20260906093507 | 72 | 130 | 2.0 | 5.0 | 0.00 | 0.00 | 0.00 | 87 | 1014.8 |
| 20260906093023 | 72 | 128 | 1.0 | 3.0 | 0.00 | 0.00 | 0.00 | 87 | 1014.8 |
| 20260906092512 | 72 | 127 | 1.0 | 3.0 | 0.00 | 0.00 | 0.00 | 87 | 1014.6 |
| 20260906092016 | 72 | 126 | 1.0 | 3.0 | 0.00 | 0.00 | 0.00 | 87 | 1014.6 |
| 20260906091530 | 72 | 128 | 1.0 | 3.0 | 0.00 | 0.00 | 0.00 | 87 | 1014.6 |
| 20260906091015 | 72 | 128 | 1.0 | 3.0 | 0.00 | 0.00 | 0.00 | 87 | 1014.5 |
| 20260906090518 | 72 | 128 | 1.0 | 4.0 | 0.00 | 0.00 | 0.00 | 87 | 1014.5 |
| 20260906090033 | 72 | 128 | 2.0 | 4.0 | 0.00 | 0.00 | 0.00 | 87 | 1014.4 |
| 20260906085505 | 72 | 128 | 2.0 | 4.0 | 0.00 | 0.00 | 0.00 | 87 | 1014.5 |
| 20260906085004 | 72 | 128 | 1.0 | 3.0 | 0.00 | 0.00 | 0.00 | 87 | 1014.5 |
| 20260906084514 | 72 | 128 | 1.0 | 3.0 | 0.00 | 0.00 | 0.00 | 87 | 1014.5 |
| 20260906084013 | 72 | 128 | 1.0 | 5.0 | 0.00 | 0.00 | 0.00 | 86 | 1014.6 |
| 20260906083507 | 73 | 130 | 1.0 | 5.0 | 0.00 | 0.00 | 0.00 | 86 | 1014.6 |
| 20260906083018 | 73 | 142 | 2.0 | 5.0 | 0.00 | 0.00 | 0.00 | 86 | 1014.7 |
| 20260906082508 | 73 | 142 | 2.0 | 4.0 | 0.00 | 0.00 | 0.00 | 86 | 1014.8 |
| 20260906082011 | 73 | 142 | 1.0 | 3.0 | 0.00 | 0.00 | 0.00 | 86 | 1014.8 |
| 20260906081542 | 73 | 142 | 0.0 | 5.0 | 0.00 | 0.00 | 0.00 | 86 | 1014.8 |
| 20260906081013 | 73 | 142 | 1.0 | 5.0 | 0.00 | 0.00 | 0.00 | 86 | 1014.7 |
| 20260906080517 | 73 | 142 | 2.0 | 4.0 | 0.00 | 0.00 | 0.00 | 86 | 1014.7 |
| 20260906080030 | 73 | 142 | 1.0 | 7.0 | 0.00 | 0.00 | 0.00 | 86 | 1014.8 |
| 20260906075516 | 73 | 142 | 2.0 | 7.0 | 0.00 | 0.00 | 0.00 | 86 | 1014.7 |
| 20260906075020 | 73 | 142 | 2.0 | 4.0 | 0.00 | 0.00 | 0.00 | 85 | 1014.7 |
| 20260906074512 | 73 | 142 | 2.0 | 7.0 | 0.00 | 0.00 | 0.00 | 85 | 1014.8 |
| 20260906074003 | 73 | 142 | 2.0 | 7.0 | 0.00 | 0.00 | 0.00 | 85 | 1014.6 |
| 20260906073507 | 73 | 142 | 3.0 | 7.0 | 0.00 | 0.00 | 0.00 | 85 | 1014.7 |
| 20260906073017 | 73 | 142 | 3.0 | 7.0 | 0.00 | 0.00 | 0.00 | 86 | 1014.7 |
| 20260906072507 | 73 | 142 | 2.0 | 5.0 | 0.00 | 0.00 | 0.00 | 86 | 1014.7 |
| 20260906072007 | 73 | 142 | 1.0 | 5.0 | 0.00 | 0.00 | 0.00 | 85 | 1014.6 |
| 20260906071524 | 73 | 141 | 2.0 | 5.0 | 0.00 | 0.00 | 0.00 | 86 | 1014.6 |
| 20260906071013 | 74 | 134 | 1.0 | 4.0 | 0.00 | 0.00 | 0.00 | 85 | 1014.6 |
| 20260906070515 | 74 | 134 | 1.0 | 4.0 | 0.00 | 0.00 | 0.00 | 85 | 1014.5 |
| 20260906070028 | 74 | 133 | 1.0 | 5.0 | 0.00 | 0.00 | 0.00 | 85 | 1014.5 |
| 20260906065516 | 74 | 132 | 2.0 | 5.0 | 0.00 | 0.00 | 0.00 | 85 | 1014.5 |
| 20260906065014 | 74 | 132 | 2.0 | 5.0 | 0.00 | 0.00 | 0.00 | 85 | 1014.6 |
| 20260906064531 | 74 | 131 | 2.0 | 4.0 | 0.00 | 0.00 | 0.00 | 85 | 1014.5 |
| 20260906064014 | 74 | 129 | 1.0 | 4.0 | 0.00 | 0.00 | 0.00 | 85 | 1014.5 |
| 20260906063517 | 74 | 128 | 1.0 | 5.0 | 0.00 | 0.00 | 0.00 | 85 | 1014.5 |
| 20260906063015 | 74 | 128 | 2.0 | 5.0 | 0.00 | 0.00 | 0.00 | 85 | 1014.5 |
| 20260906062510 | 74 | 128 | 1.0 | 4.0 | 0.00 | 0.00 | 0.00 | 86 | 1014.5 |
| 20260906062009 | 74 | 127 | 1.0 | 5.0 | 0.00 | 0.00 | 0.00 | 85 | 1014.5 |
| 20260906061529 | 74 | 126 | 1.0 | 7.0 | 0.00 | 0.00 | 0.00 | 86 | 1014.4 |
| 20260906061007 | 74 | 125 | 4.0 | 7.0 | 0.00 | 0.00 | 0.00 | 86 | 1014.4 |
| 20260906060511 | 74 | 121 | 1.0 | 4.0 | 0.00 | 0.00 | 0.00 | 85 | 1014.5 |
| 20260906060028 | 74 | 121 | 1.0 | 4.0 | 0.00 | 0.00 | 0.00 | 85 | 1014.6 |
| 20260906055514 | 75 | 121 | 1.0 | 4.0 | 0.00 | 0.00 | 0.00 | 85 | 1014.7 |
| 20260906055015 | 75 | 121 | 1.0 | 6.0 | 0.00 | 0.00 | 0.00 | 85 | 1014.8 |
| 20260906054529 | 75 | 120 | 1.0 | 5.0 | 0.00 | 0.00 | 0.00 | 84 | 1014.8 |
| 20260906054017 | 75 | 121 | 1.0 | 4.0 | 0.00 | 0.00 | 0.00 | 84 | 1014.9 |
| 20260906053515 | 75 | 121 | 1.0 | 3.0 | 0.00 | 0.00 | 0.00 | 84 | 1014.9 |
| 20260906053032 | 76 | 119 | 1.0 | 3.0 | 0.00 | 0.00 | 0.00 | 84 | 1014.8 |
| 20260906052518 | 76 | 119 | 1.0 | 3.0 | 0.00 | 0.00 | 0.00 | 84 | 1014.7 |
| 20260906052006 | 76 | 117 | 1.0 | 3.0 | 0.00 | 0.00 | 0.00 | 84 | 1014.9 |
| 20260906051516 | 76 | 117 | 0.0 | 3.0 | 0.00 | 0.00 | 0.00 | 85 | 1014.9 |
| 20260906051007 | 76 | 117 | 1.0 | 3.0 | 0.00 | 0.00 | 0.00 | 85 | 1014.9 |
| 20260906050507 | 76 | 117 | 1.0 | 3.0 | 0.00 | 0.00 | 0.00 | 85 | 1014.9 |
| 20260906050023 | 75 | 117 | 0.0 | 3.0 | 0.00 | 0.00 | 0.00 | 85 | 1014.9 |
| 20260906045515 | 75 | 117 | 1.0 | 3.0 | 0.00 | 0.00 | 0.00 | 86 | 1014.9 |
| 20260906045011 | 75 | 117 | 1.0 | 3.0 | 0.00 | 0.00 | 0.00 | 86 | 1014.9 |
| 20260906044534 | 75 | 116 | 1.0 | 3.0 | 0.00 | 0.00 | 0.00 | 86 | 1014.9 |
| 20260906044012 | 75 | 117 | 1.0 | 6.0 | 0.00 | 0.00 | 0.00 | 85 | 1014.9 |
| 20260906043520 | 76 | 117 | 1.0 | 6.0 | 0.00 | 0.00 | 0.00 | 85 | 1014.9 |
| 20260906043042 | 76 | 123 | 2.0 | 5.0 | 0.00 | 0.00 | 0.00 | 85 | 1014.9 |
| 20260906042517 | 76 | 126 | 2.0 | 4.0 | 0.00 | 0.00 | 0.00 | 85 | 1014.9 |
| 20260906042018 | 76 | 127 | 2.0 | 4.0 | 0.00 | 0.00 | 0.00 | 84 | 1014.9 |
| 20260906041538 | 76 | 127 | 1.0 | 5.0 | 0.00 | 0.00 | 0.00 | 84 | 1014.9 |
| 20260906041019 | 77 | 127 | 2.0 | 5.0 | 0.00 | 0.00 | 0.00 | 83 | 1014.9 |
| 20260906040506 | 77 | 128 | 1.0 | 3.0 | 0.00 | 0.00 | 0.00 | 83 | 1014.9 |
| 20260906040029 | 77 | 128 | 0.0 | 4.0 | 0.00 | 0.00 | 0.00 | 82 | 1014.8 |
| 20260906035508 | 78 | 128 | 1.0 | 4.0 | 0.00 | 0.00 | 0.00 | 82 | 1014.7 |
| 20260906035010 | 78 | 128 | 1.0 | 3.0 | 0.00 | 0.00 | 0.00 | 82 | 1014.7 |
| 20260906034530 | 78 | 128 | 0.0 | 4.0 | 0.00 | 0.00 | 0.00 | 82 | 1014.6 |
| 20260906034013 | 78 | 128 | 1.0 | 4.0 | 0.00 | 0.00 | 0.00 | 82 | 1014.6 |
| 20260906033516 | 78 | 128 | 2.0 | 4.0 | 0.00 | 0.00 | 0.00 | 82 | 1014.6 |
| 20260906033030 | 78 | 128 | 2.0 | 5.0 | 0.00 | 0.00 | 0.00 | 82 | 1014.6 |
| 20260906032518 | 78 | 128 | 2.0 | 5.0 | 0.00 | 0.00 | 0.00 | 82 | 1014.6 |
| 20260906032017 | 78 | 128 | 2.0 | 4.0 | 0.00 | 0.00 | 0.00 | 82 | 1014.5 |
| 20260906031546 | 78 | 128 | 1.0 | 6.0 | 0.00 | 0.00 | 0.00 | 81 | 1014.5 |
| 20260906031017 | 79 | 128 | 3.0 | 6.0 | 0.00 | 0.00 | 0.00 | 81 | 1014.4 |
| 20260906030518 | 79 | 123 | 2.0 | 6.0 | 0.00 | 0.00 | 0.00 | 81 | 1014.3 |
| 20260906030034 | 79 | 123 | 2.0 | 6.0 | 0.00 | 0.00 | 0.00 | 81 | 1014.2 |
| 20260906025510 | 79 | 123 | 2.0 | 8.0 | 0.00 | 0.00 | 0.00 | 81 | 1014.1 |
| 20260906025009 | 79 | 121 | 2.0 | 8.0 | 0.00 | 0.00 | 0.00 | 82 | 1014.1 |
| 20260906024525 | 78 | 118 | 4.0 | 8.0 | 0.00 | 0.00 | 0.00 | 82 | 1014.0 |
| 20260906024012 | 78 | 115 | 2.0 | 6.0 | 0.00 | 0.00 | 0.00 | 82 | 1013.9 |
| 20260906023514 | 78 | 115 | 2.0 | 6.0 | 0.00 | 0.00 | 0.00 | 82 | 1014.0 |
| 20260906023032 | 78 | 115 | 3.0 | 6.0 | 0.00 | 0.00 | 0.00 | 82 | 1013.8 |
| 20260906022515 | 78 | 115 | 2.0 | 4.0 | 0.00 | 0.00 | 0.00 | 82 | 1013.8 |
| 20260906022016 | 79 | 115 | 2.0 | 4.0 | 0.00 | 0.00 | 0.00 | 82 | 1013.8 |
| 20260906021532 | 79 | 115 | 2.0 | 6.0 | 0.00 | 0.00 | 0.00 | 82 | 1013.7 |
| 20260906021015 | 79 | 115 | 2.0 | 6.0 | 0.00 | 0.00 | 0.00 | 81 | 1013.5 |
| 20260906020515 | 80 | 115 | 3.0 | 6.0 | 0.00 | 0.00 | 0.00 | 81 | 1013.5 |
| 20260906020048 | 80 | 116 | 3.0 | 6.0 | 0.00 | 0.00 | 0.00 | 81 | 1013.4 |
| 20260906015524 | 80 | 117 | 2.0 | 4.0 | 0.00 | 0.00 | 0.00 | 80 | 1013.3 |
| 20260906015018 | 80 | 119 | 2.0 | 6.0 | 0.00 | 0.00 | 0.00 | 79 | 1013.3 |
| 20260906014524 | 81 | 121 | 3.0 | 6.0 | 0.00 | 0.00 | 0.00 | 79 | 1013.2 |
| 20260906014012 | 81 | 127 | 3.0 | 4.0 | 0.00 | 0.00 | 0.00 | 78 | 1013.1 |
| 20260906013511 | 82 | 128 | 1.0 | 4.0 | 0.00 | 0.00 | 0.00 | 78 | 1013.2 |
| 20260906013028 | 82 | 129 | 0.0 | 4.0 | 0.00 | 0.00 | 0.00 | 78 | 1013.1 |
| 20260906012514 | 82 | 133 | 2.0 | 4.0 | 0.00 | 0.00 | 0.00 | 78 | 1013.0 |
| 20260906012014 | 82 | 135 | 1.0 | 3.0 | 0.00 | 0.00 | 0.00 | 78 | 1013.0 |
| 20260906011533 | 82 | 135 | 1.0 | 4.0 | 0.00 | 0.00 | 0.00 | 77 | 1013.0 |
| 20260906011020 | 83 | 135 | 2.0 | 7.0 | 0.00 | 0.00 | 0.00 | 76 | 1013.0 |
| 20260906010518 | 83 | 135 | 3.0 | 7.0 | 0.00 | 0.00 | 0.00 | 76 | 1012.9 |
| 20260906010034 | 83 | 138 | 1.0 | 5.0 | 0.00 | 0.00 | 0.00 | 76 | 1012.9 |
| 20260906005503 | 83 | 140 | 1.0 | 5.0 | 0.00 | 0.00 | 0.00 | 77 | 1012.9 |
| 20260906005008 | 83 | 144 | 2.0 | 5.0 | 0.00 | 0.00 | 0.00 | 77 | 1012.9 |
| 20260906004519 | 84 | 153 | 2.0 | 4.0 | 0.00 | 0.00 | 0.00 | 76 | 1012.9 |
| 20260906004008 | 84 | 123 | 2.0 | 4.0 | 0.00 | 0.00 | 0.00 | 75 | 1012.9 |
| 20260906003508 | 85 | 123 | 2.0 | 6.0 | 0.00 | 0.00 | 0.00 | 74 | 1013.0 |
| 20260906003027 | 86 | 123 | 2.0 | 6.0 | 0.00 | 0.00 | 0.00 | 73 | 1013.0 |
| 20260906002511 | 86 | 121 | 2.0 | 6.0 | 0.00 | 0.00 | 0.00 | 73 | 1013.0 |
| 20260906002013 | 86 | 121 | 2.0 | 6.0 | 0.00 | 0.00 | 0.00 | 72 | 1012.9 |
| 20260906001533 | 87 | 109 | 3.0 | 6.0 | 0.00 | 0.00 | 0.00 | 71 | 1012.9 |
| 20260906001013 | 87 | 111 | 3.0 | 7.0 | 0.00 | 0.00 | 0.00 | 70 | 1012.9 |
| 20260906000518 | 87 | 113 | 2.0 | 7.0 | 0.00 | 0.00 | 0.00 | 70 | 1012.8 |
| 20260906000032 | 88 | 111 | 4.0 | 7.0 | 0.00 | 0.00 | 0.00 | 69 | 1012.8 |
| 20260905235516 | 88 | 113 | 3.0 | 7.0 | 0.00 | 0.00 | 0.00 | 69 | 1012.8 |
| 20260905235003 | 88 | 115 | 3.0 | 8.0 | 0.00 | 0.00 | 0.00 | 68 | 1012.9 |
| 20260905234516 | 88 | 117 | 3.0 | 8.0 | 0.00 | 0.00 | 0.00 | 67 | 1012.8 |
| 20260905234008 | 88 | 118 | 4.0 | 8.0 | 0.00 | 0.00 | 0.00 | 67 | 1012.8 |
| 20260905233510 | 88 | 109 | 4.0 | 9.0 | 0.00 | 0.00 | 0.00 | 67 | 1012.7 |
| 20260905233018 | 88 | 110 | 4.0 | 9.0 | 0.00 | 0.00 | 0.00 | 66 | 1012.7 |
| 20260905232513 | 89 | 113 | 4.0 | 10.0 | 0.00 | 0.00 | 0.00 | 66 | 1012.9 |
| 20260905232010 | 89 | 157 | 4.0 | 12.0 | 0.00 | 0.00 | 0.00 | 65 | 1012.8 |
| 20260905231529 | 89 | 126 | 6.0 | 12.0 | 0.00 | 0.00 | 0.00 | 64 | 1012.7 |
| 20260905231012 | 89 | 139 | 6.0 | 10.0 | 0.00 | 0.00 | 0.00 | 64 | 1012.6 |
| 20260905230521 | 89 | 121 | 6.0 | 10.0 | 0.00 | 0.00 | 0.00 | 64 | 1012.8 |
| 20260905230031 | 90 | 128 | 4.0 | 11.0 | 0.00 | 0.00 | 0.00 | 65 | 1012.7 |
| 20260905225516 | 90 | 128 | 6.0 | 11.0 | 0.00 | 0.00 | 0.00 | 63 | 1012.7 |
| 20260905225016 | 90 | 124 | 6.0 | 12.0 | 0.00 | 0.00 | 0.00 | 63 | 1012.6 |
| 20260905224532 | 90 | 123 | 5.0 | 12.0 | 0.00 | 0.00 | 0.00 | 62 | 1012.6 |
| 20260905224009 | 90 | 186 | 6.0 | 13.0 | 0.00 | 0.00 | 0.00 | 63 | 1012.6 |
| 20260905223508 | 91 | 124 | 6.0 | 13.0 | 0.00 | 0.00 | 0.00 | 60 | 1012.7 |
| 20260905223030 | 91 | 136 | 5.0 | 12.0 | 0.00 | 0.00 | 0.00 | 61 | 1012.8 |
| 20260905222509 | 91 | 142 | 6.0 | 12.0 | 0.00 | 0.00 | 0.00 | 60 | 1012.9 |
| 20260905222013 | 91 | 133 | 4.0 | 13.0 | 0.00 | 0.00 | 0.00 | 61 | 1012.9 |
| 20260905221537 | 90 | 139 | 6.0 | 13.0 | 0.00 | 0.00 | 0.00 | 61 | 1013.0 |
| 20260905221012 | 91 | 142 | 7.0 | 15.0 | 0.00 | 0.00 | 0.00 | 61 | 1013.0 |
| 20260905220514 | 90 | 145 | 7.0 | 15.0 | 0.00 | 0.00 | 0.00 | 61 | 1013.0 |
| 20260905220030 | 90 | 130 | 8.0 | 14.0 | 0.00 | 0.00 | 0.00 | 63 | 1013.0 |
| 20260905215517 | 90 | 156 | 9.0 | 15.0 | 0.00 | 0.00 | 0.00 | 62 | 1013.1 |
| 20260905215015 | 90 | 128 | 9.0 | 16.0 | 0.00 | 0.00 | 0.00 | 63 | 1013.1 |
| 20260905214534 | 90 | 130 | 10.0 | 16.0 | 0.00 | 0.00 | 0.00 | 63 | 1013.2 |
| 20260905214015 | 90 | 104 | 9.0 | 14.0 | 0.00 | 0.00 | 0.00 | 64 | 1013.3 |
| 20260905213519 | 90 | 111 | 9.0 | 16.0 | 0.00 | 0.00 | 0.00 | 65 | 1013.3 |
| 20260905213036 | 90 | 107 | 9.0 | 16.0 | 0.00 | 0.00 | 0.00 | 65 | 1013.5 |
| 20260905212508 | 90 | 85 | 10.0 | 16.0 | 0.00 | 0.00 | 0.00 | 65 | 1013.5 |
| 20260905212012 | 90 | 97 | 9.0 | 16.0 | 0.00 | 0.00 | 0.00 | 66 | 1013.7 |
| 20260905211536 | 89 | 121 | 10.0 | 18.0 | 0.00 | 0.00 | 0.00 | 66 | 1013.7 |
| 20260905211010 | 89 | 109 | 11.0 | 18.0 | 0.00 | 0.00 | 0.00 | 64 | 1013.8 |
| 20260905210513 | 90 | 96 | 8.0 | 17.0 | 0.00 | 0.00 | 0.00 | 65 | 1013.9 |
| 20260905210028 | 89 | 118 | 9.0 | 17.0 | 0.00 | 0.00 | 0.00 | 66 | 1013.9 |
| 20260905205512 | 89 | 85 | 10.0 | 17.0 | 0.00 | 0.00 | 0.00 | 66 | 1014.1 |
| 20260905205014 | 89 | 94 | 10.0 | 18.0 | 0.00 | 0.00 | 0.00 | 67 | 1014.1 |
| 20260905204530 | 89 | 108 | 10.0 | 18.0 | 0.00 | 0.00 | 0.00 | 66 | 1014.2 |
| 20260905204015 | 89 | 73 | 8.0 | 19.0 | 0.00 | 0.00 | 0.00 | 67 | 1014.3 |
| 20260905203519 | 89 | 115 | 12.0 | 19.0 | 0.00 | 0.00 | 0.00 | 66 | 1014.4 |
| 20260905203038 | 89 | 96 | 11.0 | 18.0 | 0.00 | 0.00 | 0.00 | 65 | 1014.5 |
| 20260905202518 | 89 | 89 | 10.0 | 18.0 | 0.00 | 0.00 | 0.00 | 66 | 1014.6 |
| 20260905202018 | 89 | 96 | 9.0 | 19.0 | 0.00 | 0.00 | 0.00 | 66 | 1014.7 |
| 20260905201516 | 89 | 71 | 10.0 | 19.0 | 0.00 | 0.00 | 0.00 | 65 | 1014.7 |
| 20260905201008 | 89 | 93 | 8.0 | 18.0 | 0.00 | 0.00 | 0.00 | 66 | 1014.9 |
| 20260905200509 | 89 | 123 | 8.0 | 18.0 | 0.00 | 0.00 | 0.00 | 65 | 1014.9 |
| 20260905200037 | 89 | 52 | 9.0 | 18.0 | 0.00 | 0.00 | 0.00 | 66 | 1015.0 |
| 20260905195515 | 89 | 74 | 9.0 | 22.0 | 0.00 | 0.00 | 0.00 | 66 | 1015.0 |
| 20260905195016 | 88 | 85 | 11.0 | 22.0 | 0.00 | 0.00 | 0.00 | 66 | 1015.0 |
| 20260905194533 | 88 | 87 | 12.0 | 22.0 | 0.00 | 0.00 | 0.00 | 66 | 1015.0 |